Location: The D'Auria's Ocala Star Observatory
(29.0276°N, 82.1742°W)
Time: 03:09:10

Okean 3 Rocket - Visible Passes

Search period start: 19 March 2018 00:00
Search period end: 29 March 2018 00:00
Orbit: 615 x 645 km, 82.5° (Epoch: 19 March)

Date Brightness Start Highest point End Pass type
(mag) Time Alt. Az. Time Alt. Az. Time Alt. Az.
26 Mar 6.3 22:07:42 10° N 22:07:51 11° N 22:07:51 11° N visible
27 Mar 6.4 22:28:33 10° NNW 22:29:07 13° NNW 22:29:07 13° NNW visible
28 Mar 5.8 21:12:27 10° NNE 21:13:00 12° NE 21:13:00 12° NE visible
28 Mar 6.6 22:49:59 10° NW 22:50:26 12° NW 22:50:26 12° NW visible
